Погода в Кобыжче

Украина / Черниговская область     50°49′36″N   31°30′19″E
темп.,
°C
ветер,
м/с
пор.,
м/с
влажн.,
%
обл.,
%
осадки,
мм/ч
давл.,
гПа
погр.,
м
16 сентября, чт
чт1600:00+11ссз22490 0.0 101911
03:00+9ссз22600 0.0 101914
06:00+9ссв2267100 0.0 101921
09:00+13св23562 0.0 1020251
12:00+18св22390 0.0 10201217
15:00+20ссз22360 0.0 10181692
18:00+19с23425 0.0 101875
21:00+13всв3454100 0.0 101861
17 сентября, пт
пт1700:00+12вюв465370 0.0 1018112
03:00+12юв3851100 0.0 1017177
06:00+13ююв3751100 0.0 1015199
09:00+16ююв5945100 0.0 1014314
12:00+17ююв4944100 0.0 1013385
15:00+18юв4942100 0.0 1011458
18:00+18юв4867100 0.1 1009271
21:00+15вюв71464100 0.5 1009330
18 сентября, сб
сб1800:00+16вюв51261100 0.0 1008383
03:00+16юв5965100 0.1 1007318
06:00+15юв51196100 1.6 1006447
09:00+15юв71291100 3.9 1006588
12:00+17ю61192100 1.6 1005759
15:00+18зюз687095 1.8 10071052
18:00+16зюз4772100 0.0 1008576
21:00+15ююз2481100 0.2 1010103
19 сентября, вс
вс1900:00+14зсз117958 0.1 101021
03:00+11з22905 0.1 101121
06:00+10зюз119253 0.0 101110
09:00+14юз22749 0.0 1011277
12:00+15юз3368100 0.0 1011665
15:00+17з2359100 0.0 1010963
18:00+15с3369100 0.0 1010422
21:00+13сз2491100 0.3 1010183
20 сентября, пн
пн2000:00+11зсз3395100 1.0 1010209
03:00+10зсз4592100 1.2 1009255
06:00+9зсз3494100 8.5 1009311
09:00+9з2391100 9.4 1009333
12:00+9зюз349099 0.4 1009417
15:00+9зюз3586100 0.5 1009469
18:00+9зюз4691100 0.6 1009426
21:00+8зюз4692100 0.8 1008355